Time,TemperatureF,DewpointF,PressureIn,WindDirection,WindDirectionDegrees,WindSpeedMPH,WindSpeedGustMPH,Humidity,HourlyPrecipIn,Conditions,Clouds,dailyrainin,SolarRadiationWatts/m^2,SoftwareType,DateUTC
2013-07-01 00:01:00,54.0,51.0,-100.00,SSW,194,0.0,0.0,91,0.00,,,0.00,1.000000,,2013-07-01 04:01:00,
2013-07-01 00:11:00,54.0,51.0,-100.00,SSW,194,0.0,0.0,91,0.00,,,0.00,1.000000,,2013-07-01 04:11:00,
2013-07-01 00:22:00,54.0,51.0,-100.00,SSW,194,0.0,0.0,91,0.00,,,0.00,1.000000,,2013-07-01 04:22:00,
2013-07-01 00:32:00,54.0,51.0,-100.00,SSW,194,0.0,0.0,91,0.00,,,0.00,1.000000,,2013-07-01 04:32:00,
2013-07-01 01:01:00,52.0,50.0,-100.00,SSE,165,0.0,0.0,94,0.00,,,0.00,1.000000,,2013-07-01 05:01:00,
2013-07-01 01:11:00,52.0,50.0,-100.00,SSE,165,0.0,0.0,94,0.00,,,0.00,1.000000,,2013-07-01 05:11:00,
2013-07-01 01:22:00,52.0,50.0,-100.00,SSE,165,0.0,0.0,94,0.00,,,0.00,1.000000,,2013-07-01 05:22:00,
2013-07-01 01:33:00,52.0,50.0,-100.00,SSE,165,0.0,0.0,94,0.00,,,0.00,1.000000,,2013-07-01 05:33:00,
2013-07-01 02:02:00,50.0,49.0,-100.00,SSW,197,0.0,0.0,96,0.00,,,0.00,1.000000,,2013-07-01 06:02:00,
2013-07-01 02:12:00,50.0,49.0,-100.00,SSW,197,0.0,0.0,96,0.00,,,0.00,1.000000,,2013-07-01 06:12:00,
2013-07-01 02:24:00,50.0,49.0,-100.00,SSW,197,0.0,0.0,96,0.00,,,0.00,1.000000,,2013-07-01 06:24:00,
2013-07-01 02:33:00,50.0,49.0,-100.00,SSW,197,0.0,0.0,96,0.00,,,0.00,1.000000,,2013-07-01 06:33:00,
2013-07-01 03:01:00,49.0,48.0,-100.00,South,171,0.0,0.0,97,0.00,,,0.00,1.000000,,2013-07-01 07:01:00,
2013-07-01 03:11:00,49.0,48.0,-100.00,South,171,0.0,0.0,97,0.00,,,0.00,1.000000,,2013-07-01 07:11:00,
2013-07-01 03:22:00,49.0,48.0,-100.00,South,171,0.0,0.0,97,0.00,,,0.00,1.000000,,2013-07-01 07:22:00,
2013-07-01 03:33:00,49.0,48.0,-100.00,South,171,0.0,0.0,97,0.00,,,0.00,1.000000,,2013-07-01 07:33:00,
2013-07-01 04:01:00,48.0,47.0,-100.00,SSE,162,0.0,0.0,98,0.00,,,0.00,1.000000,,2013-07-01 08:01:00,
2013-07-01 04:11:00,48.0,47.0,-100.00,SSE,162,0.0,0.0,98,0.00,,,0.00,1.000000,,2013-07-01 08:11:00,
2013-07-01 04:22:00,48.0,47.0,-100.00,SSE,162,0.0,0.0,98,0.00,,,0.00,1.000000,,2013-07-01 08:22:00,
2013-07-01 04:33:00,48.0,47.0,-100.00,SSE,162,0.0,0.0,98,0.00,,,0.00,1.000000,,2013-07-01 08:33:00,
2013-07-01 05:02:00,47.0,46.0,-100.00,SSE,162,0.0,0.0,98,0.00,,,0.00,1.000000,,2013-07-01 09:02:00,
2013-07-01 05:11:00,47.0,46.0,-100.00,SSE,162,0.0,0.0,98,0.00,,,0.00,1.000000,,2013-07-01 09:11:00,
2013-07-01 05:22:00,47.0,46.0,-100.00,SSE,162,0.0,0.0,98,0.00,,,0.00,1.000000,,2013-07-01 09:22:00,
2013-07-01 05:34:00,47.0,46.0,-100.00,SSE,162,0.0,0.0,98,0.00,,,0.00,1.000000,,2013-07-01 09:34:00,
2013-07-01 06:03:00,46.0,46.0,-100.00,South,186,0.0,3.0,99,0.00,,,0.00,1.000000,,2013-07-01 10:03:00,
2013-07-01 06:11:00,46.0,46.0,-100.00,South,186,0.0,3.0,99,0.00,,,0.00,1.000000,,2013-07-01 10:11:00,
2013-07-01 06:22:00,46.0,46.0,-100.00,South,186,0.0,3.0,99,0.00,,,0.00,1.000000,,2013-07-01 10:22:00,
2013-07-01 06:33:00,46.0,46.0,-100.00,South,186,0.0,3.0,99,0.00,,,0.00,1.000000,,2013-07-01 10:33:00,
2013-07-01 07:02:00,46.0,46.0,-100.00,SSE,156,0.0,2.0,99,0.00,,,0.00,6.000000,,2013-07-01 11:02:00,
2013-07-01 07:11:00,46.0,46.0,-100.00,SSE,156,0.0,2.0,99,0.00,,,0.00,6.000000,,2013-07-01 11:11:00,
2013-07-01 07:22:00,46.0,46.0,-100.00,SSE,156,0.0,2.0,99,0.00,,,0.00,6.000000,,2013-07-01 11:22:00,
2013-07-01 07:33:00,46.0,46.0,-100.00,SSE,156,0.0,2.0,99,0.00,,,0.00,6.000000,,2013-07-01 11:33:00,
2013-07-01 08:01:00,50.0,48.0,-100.00,South,189,0.0,0.0,93,0.00,,,0.00,73.000000,,2013-07-01 12:01:00,
2013-07-01 08:11:00,50.0,48.0,-100.00,South,189,0.0,0.0,93,0.00,,,0.00,73.000000,,2013-07-01 12:11:00,
2013-07-01 08:22:00,50.0,48.0,-100.00,South,189,0.0,0.0,93,0.00,,,0.00,73.000000,,2013-07-01 12:22:00,
2013-07-01 08:33:00,50.0,48.0,-100.00,South,189,0.0,0.0,93,0.00,,,0.00,73.000000,,2013-07-01 12:33:00,
2013-07-01 09:02:00,60.0,53.0,-100.00,SE,128,0.0,2.0,79,0.00,,,0.00,207.000000,,2013-07-01 13:02:00,
2013-07-01 09:12:00,60.0,53.0,-100.00,SE,128,0.0,2.0,79,0.00,,,0.00,207.000000,,2013-07-01 13:12:00,
2013-07-01 09:23:00,60.0,53.0,-100.00,SE,128,0.0,2.0,79,0.00,,,0.00,207.000000,,2013-07-01 13:23:00,
2013-07-01 09:33:00,60.0,53.0,-100.00,SE,128,0.0,2.0,79,0.00,,,0.00,207.000000,,2013-07-01 13:33:00,
2013-07-01 10:01:00,68.0,53.0,-100.00,NNE,13,3.0,7.0,58,0.00,,,0.00,374.000000,,2013-07-01 14:01:00,
2013-07-01 10:11:00,68.0,53.0,-100.00,NNE,13,3.0,7.0,58,0.00,,,0.00,374.000000,,2013-07-01 14:11:00,
2013-07-01 10:22:00,68.0,53.0,-100.00,NNE,13,3.0,7.0,58,0.00,,,0.00,374.000000,,2013-07-01 14:22:00,
2013-07-01 10:34:00,68.0,53.0,-100.00,NNE,13,3.0,7.0,58,0.00,,,0.00,374.000000,,2013-07-01 14:34:00,
2013-07-01 11:02:00,71.0,52.0,-100.00,NNE,25,5.0,8.0,51,0.00,,,0.00,543.000000,,2013-07-01 15:02:00,
2013-07-01 11:11:00,71.0,52.0,-100.00,NNE,25,5.0,8.0,51,0.00,,,0.00,543.000000,,2013-07-01 15:11:00,
2013-07-01 11:23:00,71.0,52.0,-100.00,NNE,25,5.0,8.0,51,0.00,,,0.00,543.000000,,2013-07-01 15:23:00,
2013-07-01 11:34:00,71.0,52.0,-100.00,NNE,25,5.0,8.0,51,0.00,,,0.00,543.000000,,2013-07-01 15:34:00,
2013-07-01 12:01:00,73.0,52.0,-100.00,NE,41,8.0,14.0,48,0.00,,,0.00,697.000000,,2013-07-01 16:01:00,
2013-07-01 12:11:00,73.0,52.0,-100.00,NE,41,8.0,14.0,48,0.00,,,0.00,697.000000,,2013-07-01 16:11:00,
2013-07-01 12:22:00,73.0,52.0,-100.00,NE,41,8.0,14.0,48,0.00,,,0.00,697.000000,,2013-07-01 16:22:00,
2013-07-01 12:33:00,73.0,52.0,-100.00,NE,41,8.0,14.0,48,0.00,,,0.00,697.000000,,2013-07-01 16:33:00,
2013-07-01 13:02:00,74.0,54.0,-100.00,NE,47,8.0,14.0,50,0.00,,,0.00,815.000000,,2013-07-01 17:02:00,
2013-07-01 13:12:00,74.0,54.0,-100.00,NE,47,8.0,14.0,50,0.00,,,0.00,815.000000,,2013-07-01 17:12:00,
2013-07-01 13:23:00,74.0,54.0,-100.00,NE,47,8.0,14.0,50,0.00,,,0.00,815.000000,,2013-07-01 17:23:00,
2013-07-01 13:34:00,74.0,54.0,-100.00,NE,47,8.0,14.0,50,0.00,,,0.00,815.000000,,2013-07-01 17:34:00,
2013-07-01 14:02:00,75.0,55.0,-100.00,NNE,24,7.0,14.0,49,0.00,,,0.00,893.000000,,2013-07-01 18:02:00,
2013-07-01 14:11:00,75.0,55.0,-100.00,NNE,24,7.0,14.0,49,0.00,,,0.00,893.000000,,2013-07-01 18:11:00,
2013-07-01 14:22:00,75.0,55.0,-100.00,NNE,24,7.0,14.0,49,0.00,,,0.00,893.000000,,2013-07-01 18:22:00,
2013-07-01 14:33:00,75.0,55.0,-100.00,NNE,24,7.0,14.0,49,0.00,,,0.00,893.000000,,2013-07-01 18:33:00,
2013-07-01 15:02:00,75.0,52.0,-100.00,NE,36,7.0,14.0,45,0.00,,,0.00,919.000000,,2013-07-01 19:02:00,
2013-07-01 15:11:00,75.0,52.0,-100.00,NE,36,7.0,14.0,45,0.00,,,0.00,919.000000,,2013-07-01 19:11:00,
2013-07-01 15:22:00,75.0,52.0,-100.00,NE,36,7.0,14.0,45,0.00,,,0.00,919.000000,,2013-07-01 19:22:00,
2013-07-01 15:33:00,75.0,52.0,-100.00,NE,36,7.0,14.0,45,0.00,,,0.00,919.000000,,2013-07-01 19:33:00,
2013-07-01 16:02:00,76.0,52.0,-100.00,NE,46,8.0,14.0,43,0.00,,,0.00,916.000000,,2013-07-01 20:02:00,
2013-07-01 16:11:00,76.0,52.0,-100.00,NE,46,8.0,14.0,43,0.00,,,0.00,916.000000,,2013-07-01 20:11:00,
2013-07-01 16:22:00,76.0,52.0,-100.00,NE,46,8.0,14.0,43,0.00,,,0.00,916.000000,,2013-07-01 20:22:00,
2013-07-01 16:34:00,76.0,52.0,-100.00,NE,46,8.0,14.0,43,0.00,,,0.00,916.000000,,2013-07-01 20:34:00,
2013-07-01 17:02:00,75.0,50.0,-100.00,NE,50,8.0,14.0,41,0.00,,,0.00,796.000000,,2013-07-01 21:02:00,
2013-07-01 17:11:00,75.0,50.0,-100.00,NE,50,8.0,14.0,41,0.00,,,0.00,796.000000,,2013-07-01 21:11:00,
2013-07-01 17:24:00,75.0,50.0,-100.00,NE,50,8.0,14.0,41,0.00,,,0.00,796.000000,,2013-07-01 21:24:00,
2013-07-01 17:34:00,75.0,50.0,-100.00,NE,50,8.0,14.0,41,0.00,,,0.00,796.000000,,2013-07-01 21:34:00,
2013-07-01 18:01:00,75.0,49.0,-100.00,NNE,29,7.0,13.0,40,0.00,,,0.00,736.000000,,2013-07-01 22:01:00,
2013-07-01 18:11:00,75.0,49.0,-100.00,NNE,29,7.0,13.0,40,0.00,,,0.00,736.000000,,2013-07-01 22:11:00,
2013-07-01 18:24:00,75.0,49.0,-100.00,NNE,29,7.0,13.0,40,0.00,,,0.00,736.000000,,2013-07-01 22:24:00,
2013-07-01 18:33:00,75.0,49.0,-100.00,NNE,29,7.0,13.0,40,0.00,,,0.00,736.000000,,2013-07-01 22:33:00,
2013-07-01 19:01:00,74.0,48.0,-100.00,NE,47,8.0,13.0,40,0.00,,,0.00,390.000000,,2013-07-01 23:01:00,
2013-07-01 19:11:00,74.0,48.0,-100.00,NE,47,8.0,13.0,40,0.00,,,0.00,390.000000,,2013-07-01 23:11:00,
2013-07-01 19:22:00,74.0,48.0,-100.00,NE,47,8.0,13.0,40,0.00,,,0.00,390.000000,,2013-07-01 23:22:00,
2013-07-01 19:33:00,74.0,48.0,-100.00,NE,47,8.0,13.0,40,0.00,,,0.00,390.000000,,2013-07-01 23:33:00,
2013-07-01 20:01:00,71.0,47.0,-100.00,NE,37,7.0,13.0,42,0.00,,,0.00,390.000000,,2013-07-02 00:01:00,
2013-07-01 20:12:00,71.0,47.0,-100.00,NE,37,7.0,13.0,42,0.00,,,0.00,390.000000,,2013-07-02 00:12:00,
2013-07-01 20:22:00,71.0,47.0,-100.00,NE,37,7.0,13.0,42,0.00,,,0.00,390.000000,,2013-07-02 00:22:00,
2013-07-01 20:34:00,71.0,47.0,-100.00,NE,37,7.0,13.0,42,0.00,,,0.00,390.000000,,2013-07-02 00:34:00,
2013-07-01 21:01:00,68.0,45.0,-100.00,NE,46,6.0,11.0,43,0.00,,,0.00,255.000000,,2013-07-02 01:01:00,
2013-07-01 21:11:00,68.0,45.0,-100.00,NE,46,6.0,11.0,43,0.00,,,0.00,255.000000,,2013-07-02 01:11:00,
2013-07-01 21:22:00,68.0,45.0,-100.00,NE,46,6.0,11.0,43,0.00,,,0.00,255.000000,,2013-07-02 01:22:00,
2013-07-01 21:33:00,68.0,45.0,-100.00,NE,46,6.0,11.0,43,0.00,,,0.00,255.000000,,2013-07-02 01:33:00,
2013-07-01 22:02:00,62.0,44.0,-100.00,NE,35,4.0,8.0,52,0.00,,,0.00,78.000000,,2013-07-02 02:02:00,
2013-07-01 22:12:00,62.0,44.0,-100.00,NE,35,4.0,8.0,52,0.00,,,0.00,78.000000,,2013-07-02 02:12:00,
2013-07-01 22:22:00,62.0,44.0,-100.00,NE,35,4.0,8.0,52,0.00,,,0.00,78.000000,,2013-07-02 02:22:00,
2013-07-01 22:33:00,62.0,44.0,-100.00,NE,35,4.0,8.0,52,0.00,,,0.00,78.000000,,2013-07-02 02:33:00,
2013-07-01 23:01:00,54.0,46.0,-100.00,South,183,0.0,2.0,73,0.00,,,0.00,4.000000,,2013-07-02 03:01:00,
2013-07-01 23:12:00,54.0,46.0,-100.00,South,183,0.0,2.0,73,0.00,,,0.00,4.000000,,2013-07-02 03:12:00,
2013-07-01 23:24:00,54.0,46.0,-100.00,South,183,0.0,2.0,73,0.00,,,0.00,4.000000,,2013-07-02 03:24:00,
2013-07-01 23:32:00,54.0,46.0,-100.00,South,183,0.0,2.0,73,0.00,,,0.00,4.000000,,2013-07-02 03:32:00,